Location: Litvinovka
(48.6667°N, 34.3500°E)
Time: 07:16:31
(UTC+00:00)

Resurs 1-3 - Pass Details

Date: 18 September 2020
Orbit: 630 x 632 km, 97.9° (Epoch: 22 October)

Event Time Altitude Azimuth Distance (km) Brightness Sun altitude
Exits shadow 18:23:51 36° 218° (SW) 998 4.6 -24.9°
Maximum altitude 18:25:03 46° 261° (W) 853 4.5 -25.1°
Drops below altitude 10° 18:29:18 10° 335° (NNW) 2,025 7.0 -25.6°
Sets 18:31:35 0° 342° (NNW) 2,938 7.9 -25.9°
